Time,TemperatureF,DewpointF,PressureIn,WindDirection,WindDirectionDegrees,WindSpeedMPH,WindSpeedGustMPH,Humidity,HourlyPrecipIn,Conditions,Clouds,dailyrainin,SoftwareType,DateUTC
2013-01-21 00:11:00,29.9,13.0,30.00,North,10,4.0,7.0,50,0.00,,,0.00,weatherlink.com 1.10,2013-01-21 05:11:00,
2013-01-21 00:26:00,29.7,13.0,30.00,NNW,336,2.0,7.0,50,0.00,,,0.00,weatherlink.com 1.10,2013-01-21 05:26:00,
2013-01-21 00:41:00,29.4,13.0,30.00,NNW,347,1.0,7.0,51,0.00,,,0.00,weatherlink.com 1.10,2013-01-21 05:41:00,
2013-01-21 00:56:00,29.2,13.0,30.01,West,264,0.0,7.0,50,0.00,,,0.00,weatherlink.com 1.10,2013-01-21 05:56:00,
2013-01-21 01:26:00,28.7,12.0,30.02,WSW,253,1.0,8.0,49,0.00,,,0.00,weatherlink.com 1.10,2013-01-21 06:26:00,
2013-01-21 01:56:00,28.2,11.0,30.03,West,265,0.0,6.0,49,0.00,,,0.00,weatherlink.com 1.10,2013-01-21 06:56:00,
2013-01-21 02:11:00,28.0,10.0,30.03,West,281,1.0,8.0,48,0.00,,,0.00,weatherlink.com 1.10,2013-01-21 07:11:00,
2013-01-21 02:26:00,27.6,10.0,30.03,WNW,302,0.0,3.0,48,0.00,,,0.00,weatherlink.com 1.10,2013-01-21 07:26:00,
2013-01-21 02:41:00,27.4,10.0,30.03,West,267,2.0,4.0,48,0.00,,,0.00,weatherlink.com 1.10,2013-01-21 07:41:00,
2013-01-21 03:11:00,26.7,10.0,30.04,WNW,302,0.0,2.0,49,0.00,,,0.00,weatherlink.com 1.10,2013-01-21 08:11:00,
2013-01-21 03:26:00,26.2,10.0,30.04,WNW,302,0.0,1.0,51,0.00,,,0.00,weatherlink.com 1.10,2013-01-21 08:26:00,
2013-01-21 03:41:00,25.7,11.0,30.04,WNW,302,0.0,1.0,54,0.00,,,0.00,weatherlink.com 1.10,2013-01-21 08:41:00,
2013-01-21 04:11:00,25.1,11.0,30.03,West,271,0.0,0.0,55,0.00,,,0.00,weatherlink.com 1.10,2013-01-21 09:11:00,
2013-01-21 04:42:00,24.7,12.0,30.03,West,271,0.0,0.0,58,0.00,,,0.00,weatherlink.com 1.10,2013-01-21 09:42:00,
2013-01-21 04:57:00,24.3,12.0,30.03,West,271,0.0,1.0,60,0.00,,,0.00,weatherlink.com 1.10,2013-01-21 09:57:00,
2013-01-21 05:12:00,23.8,12.0,30.03,West,271,1.0,2.0,60,0.00,,,0.00,weatherlink.com 1.10,2013-01-21 10:12:00,
2013-01-21 05:27:00,23.9,12.0,30.03,West,271,0.0,1.0,60,0.00,,,0.00,weatherlink.com 1.10,2013-01-21 10:27:00,
2013-01-21 05:42:00,23.9,12.0,30.04,West,271,0.0,1.0,61,0.00,,,0.00,weatherlink.com 1.10,2013-01-21 10:42:00,
2013-01-21 05:57:00,23.8,12.0,30.03,West,271,0.0,2.0,62,0.00,,,0.00,weatherlink.com 1.10,2013-01-21 10:57:00,
2013-01-21 06:12:00,23.7,12.0,30.03,West,271,0.0,0.0,62,0.00,,,0.00,weatherlink.com 1.10,2013-01-21 11:12:00,
2013-01-21 06:27:00,23.3,13.0,30.04,West,271,0.0,0.0,64,0.00,,,0.00,weatherlink.com 1.10,2013-01-21 11:27:00,
2013-01-21 06:42:00,22.8,13.0,30.04,West,271,0.0,0.0,67,0.00,,,0.00,weatherlink.com 1.10,2013-01-21 11:42:00,
2013-01-21 06:57:00,22.4,14.0,30.04,West,271,0.0,0.0,69,0.00,,,0.00,weatherlink.com 1.10,2013-01-21 11:57:00,
2013-01-21 07:12:00,22.2,13.0,30.04,West,271,0.0,0.0,68,0.00,,,0.00,weatherlink.com 1.10,2013-01-21 12:12:00,
2013-01-21 07:27:00,21.9,14.0,30.04,West,271,0.0,0.0,70,0.00,,,0.00,weatherlink.com 1.10,2013-01-21 12:27:00,
2013-01-21 07:42:00,21.8,14.0,30.04,West,271,0.0,0.0,71,0.00,,,0.00,weatherlink.com 1.10,2013-01-21 12:42:00,
2013-01-21 07:57:00,22.0,14.0,30.04,West,271,0.0,0.0,71,0.00,,,0.00,weatherlink.com 1.10,2013-01-21 12:57:00,
2013-01-21 08:12:00,23.3,14.0,30.04,West,271,0.0,2.0,68,0.00,,,0.00,weatherlink.com 1.10,2013-01-21 13:12:00,
2013-01-21 08:27:00,24.4,14.0,30.04,West,269,0.0,1.0,65,0.00,,,0.00,weatherlink.com 1.10,2013-01-21 13:27:00,
2013-01-21 08:42:00,25.6,14.0,30.04,West,266,0.0,3.0,62,0.00,,,0.00,weatherlink.com 1.10,2013-01-21 13:42:00,
2013-01-21 08:57:00,26.4,14.0,30.05,WNW,292,0.0,4.0,59,0.00,,,0.00,weatherlink.com 1.10,2013-01-21 13:57:00,
2013-01-21 09:12:00,27.1,14.0,30.05,West,269,0.0,2.0,57,0.00,,,0.00,weatherlink.com 1.10,2013-01-21 14:12:00,
2013-01-21 09:27:00,27.6,12.0,30.05,WNW,286,0.0,4.0,53,0.00,,,0.00,weatherlink.com 1.10,2013-01-21 14:27:00,
2013-01-21 09:42:00,27.8,12.0,30.05,West,276,2.0,3.0,52,0.00,,,0.00,weatherlink.com 1.10,2013-01-21 14:42:00,
2013-01-21 09:57:00,28.4,13.0,30.05,West,277,0.0,2.0,52,0.00,,,0.00,weatherlink.com 1.10,2013-01-21 14:57:00,
2013-01-21 10:12:00,28.8,12.0,30.04,WNW,293,2.0,4.0,50,0.00,,,0.00,weatherlink.com 1.10,2013-01-21 15:12:00,
2013-01-21 10:27:00,29.1,12.0,30.03,WNW,284,0.0,2.0,50,0.00,,,0.00,weatherlink.com 1.10,2013-01-21 15:27:00,
2013-01-21 10:42:00,29.6,12.0,30.03,WSW,253,0.0,2.0,48,0.00,,,0.00,weatherlink.com 1.10,2013-01-21 15:42:00,
2013-01-21 10:57:00,29.7,13.0,30.01,West,279,3.0,3.0,49,0.00,,,0.00,weatherlink.com 1.10,2013-01-21 15:57:00,
2013-01-21 11:12:00,30.3,12.0,30.01,South,182,1.0,4.0,47,0.00,,,0.00,weatherlink.com 1.10,2013-01-21 16:12:00,
2013-01-21 11:27:00,30.4,12.0,29.99,West,267,0.0,3.0,47,0.00,,,0.00,weatherlink.com 1.10,2013-01-21 16:27:00,
2013-01-21 11:42:00,30.6,12.0,29.98,WNW,290,0.0,4.0,47,0.00,,,0.00,weatherlink.com 1.10,2013-01-21 16:42:00,
2013-01-21 11:57:00,31.2,12.0,29.97,WSW,245,2.0,6.0,45,0.00,,,0.00,weatherlink.com 1.10,2013-01-21 16:57:00,
2013-01-21 12:12:00,31.8,13.0,29.96,West,273,2.0,5.0,45,0.00,,,0.00,weatherlink.com 1.10,2013-01-21 17:12:00,
2013-01-21 12:27:00,32.2,13.0,29.95,SW,234,0.0,4.0,45,0.00,,,0.00,weatherlink.com 1.10,2013-01-21 17:27:00,
2013-01-21 12:42:00,32.6,13.0,29.93,ESE,120,3.0,3.0,45,0.00,,,0.00,weatherlink.com 1.10,2013-01-21 17:42:00,
2013-01-21 12:57:00,32.3,13.0,29.93,SSE,161,0.0,4.0,45,0.00,,,0.00,weatherlink.com 1.10,2013-01-21 17:57:00,
2013-01-21 13:12:00,32.0,13.0,29.93,SW,233,1.0,5.0,46,0.00,,,0.00,weatherlink.com 1.10,2013-01-21 18:12:00,
2013-01-21 13:27:00,31.9,14.0,29.92,WSW,240,1.0,3.0,47,0.00,,,0.00,weatherlink.com 1.10,2013-01-21 18:27:00,
2013-01-21 13:42:00,32.7,14.0,29.91,South,169,4.0,4.0,47,0.00,,,0.00,weatherlink.com 1.10,2013-01-21 18:42:00,
2013-01-21 13:57:00,32.5,14.0,29.91,SW,219,3.0,6.0,46,0.00,,,0.00,weatherlink.com 1.10,2013-01-21 18:57:00,
2013-01-21 14:12:00,32.1,14.0,29.91,WSW,249,1.0,3.0,48,0.00,,,0.00,weatherlink.com 1.10,2013-01-21 19:12:00,
2013-01-21 14:27:00,32.1,14.0,29.90,ESE,123,1.0,4.0,47,0.00,,,0.00,weatherlink.com 1.10,2013-01-21 19:27:00,
2013-01-21 14:42:00,31.8,14.0,29.89,NW,307,0.0,3.0,48,0.00,,,0.00,weatherlink.com 1.10,2013-01-21 19:42:00,
2013-01-21 14:57:00,31.6,14.0,29.89,WSW,244,1.0,4.0,48,0.00,,,0.00,weatherlink.com 1.10,2013-01-21 19:57:00,
2013-01-21 15:12:00,31.6,14.0,29.88,WSW,240,2.0,3.0,48,0.00,,,0.00,weatherlink.com 1.10,2013-01-21 20:12:00,
2013-01-21 15:28:00,31.5,14.0,29.87,WSW,254,0.0,4.0,48,0.00,,,0.00,weatherlink.com 1.10,2013-01-21 20:28:00,
2013-01-21 15:43:00,31.5,14.0,29.85,West,260,0.0,4.0,49,0.00,,,0.00,weatherlink.com 1.10,2013-01-21 20:43:00,
2013-01-21 15:58:00,31.3,14.0,29.85,SW,215,1.0,2.0,49,0.00,,,0.00,weatherlink.com 1.10,2013-01-21 20:58:00,
2013-01-21 16:13:00,31.4,15.0,29.84,SSE,167,1.0,3.0,50,0.00,,,0.00,weatherlink.com 1.10,2013-01-21 21:13:00,
2013-01-21 16:28:00,31.4,14.0,29.84,SSE,167,1.0,1.0,49,0.00,,,0.00,weatherlink.com 1.10,2013-01-21 21:28:00,
2013-01-21 16:43:00,31.4,14.0,29.83,SSE,167,1.0,1.0,49,0.00,,,0.00,weatherlink.com 1.10,2013-01-21 21:43:00,
2013-01-21 16:58:00,31.3,14.0,29.84,SSE,167,0.0,2.0,50,0.00,,,0.00,weatherlink.com 1.10,2013-01-21 21:58:00,
2013-01-21 17:13:00,31.2,14.0,29.84,SSE,167,0.0,0.0,50,0.00,,,0.00,weatherlink.com 1.10,2013-01-21 22:13:00,
2013-01-21 17:28:00,31.2,15.0,29.84,SSE,167,0.0,2.0,51,0.00,,,0.00,weatherlink.com 1.10,2013-01-21 22:28:00,
2013-01-21 17:43:00,31.0,14.0,29.84,SSE,167,0.0,1.0,50,0.00,,,0.00,weatherlink.com 1.10,2013-01-21 22:43:00,
2013-01-21 17:58:00,30.9,15.0,29.85,SSE,167,0.0,1.0,52,0.00,,,0.00,weatherlink.com 1.10,2013-01-21 22:58:00,
2013-01-21 18:13:00,30.7,14.0,29.84,SSE,167,0.0,0.0,51,0.00,,,0.00,weatherlink.com 1.10,2013-01-21 23:13:00,
2013-01-21 18:28:00,30.7,15.0,29.84,SSE,167,0.0,2.0,52,0.00,,,0.00,weatherlink.com 1.10,2013-01-21 23:28:00,
2013-01-21 18:43:00,30.8,15.0,29.82,SSE,167,0.0,1.0,53,0.00,,,0.00,weatherlink.com 1.10,2013-01-21 23:43:00,
2013-01-21 18:58:00,30.8,15.0,29.82,SSE,167,0.0,2.0,53,0.00,,,0.00,weatherlink.com 1.10,2013-01-21 23:58:00,
2013-01-21 19:14:00,30.8,15.0,29.82,SSE,167,0.0,2.0,53,0.00,,,0.00,weatherlink.com 1.10,2013-01-22 00:14:00,
2013-01-21 19:28:00,30.8,16.0,29.82,SSE,167,1.0,1.0,54,0.00,,,0.00,weatherlink.com 1.10,2013-01-22 00:28:00,
2013-01-21 19:43:00,30.8,16.0,29.83,SW,215,0.0,2.0,55,0.00,,,0.00,weatherlink.com 1.10,2013-01-22 00:43:00,
2013-01-21 19:58:00,30.8,16.0,29.83,WNW,282,0.0,3.0,54,0.00,,,0.00,weatherlink.com 1.10,2013-01-22 00:58:00,
2013-01-21 20:13:00,30.6,16.0,29.83,NNW,333,0.0,5.0,54,0.00,,,0.00,weatherlink.com 1.10,2013-01-22 01:13:00,
2013-01-21 20:28:00,30.5,16.0,29.83,West,279,1.0,7.0,55,0.00,,,0.00,weatherlink.com 1.10,2013-01-22 01:28:00,
2013-01-21 20:43:00,30.2,18.0,29.83,WSW,257,1.0,8.0,60,0.00,,,0.00,weatherlink.com 1.10,2013-01-22 01:43:00,
2013-01-21 20:58:00,29.9,17.0,29.82,West,281,3.0,4.0,60,0.00,,,0.00,weatherlink.com 1.10,2013-01-22 01:58:00,
2013-01-21 21:13:00,29.9,17.0,29.81,West,273,0.0,5.0,60,0.00,,,0.00,weatherlink.com 1.10,2013-01-22 02:13:00,
2013-01-21 21:28:00,29.7,18.0,29.81,NNW,333,2.0,4.0,61,0.00,,,0.00,weatherlink.com 1.10,2013-01-22 02:28:00,
2013-01-21 21:43:00,29.6,18.0,29.82,West,272,1.0,4.0,63,0.00,,,0.00,weatherlink.com 1.10,2013-01-22 02:43:00,
2013-01-21 21:58:00,29.6,18.0,29.81,West,268,5.0,8.0,63,0.00,,,0.00,weatherlink.com 1.10,2013-01-22 02:58:00,
2013-01-21 22:13:00,29.5,19.0,29.80,West,271,4.0,10.0,64,0.00,,,0.00,weatherlink.com 1.10,2013-01-22 03:13:00,
2013-01-21 22:28:00,29.1,19.0,29.81,West,268,5.0,10.0,66,0.00,,,0.00,weatherlink.com 1.10,2013-01-22 03:28:00,
2013-01-21 22:43:00,28.6,18.0,29.80,West,267,2.0,9.0,66,0.00,,,0.00,weatherlink.com 1.10,2013-01-22 03:43:00,
2013-01-21 22:58:00,28.0,18.0,29.80,WSW,237,4.0,4.0,67,0.00,,,0.00,weatherlink.com 1.10,2013-01-22 03:58:00,
2013-01-21 23:13:00,27.7,17.0,29.80,West,264,3.0,11.0,65,0.00,,,0.00,weatherlink.com 1.10,2013-01-22 04:13:00,
2013-01-21 23:28:00,27.5,16.0,29.80,WNW,288,4.0,9.0,63,0.00,,,0.00,weatherlink.com 1.10,2013-01-22 04:28:00,
2013-01-21 23:43:00,27.1,15.0,29.80,WSW,252,4.0,11.0,61,0.00,,,0.00,weatherlink.com 1.10,2013-01-22 04:43:00,
2013-01-21 23:58:00,26.8,14.0,29.80,West,261,0.0,7.0,58,0.00,,,0.00,weatherlink.com 1.10,2013-01-22 04:58:00,